PRIVATE WETTERSTATION BILLIGHEIM-ALLFELD                       ZURCK
Wetterdaten: Samstag, 15.11.2014
Datum Zeit Temp. A. Temp. A. min Temp. A. max Feuchte A. Luftdruck Regen Wind Richtung Richtung Sonnenschein ET Solar Taupunkt Windchill Windben Empfang
15.11.2014 00:00 6,5 C 6,5 C 6,5 C 91 % 1006,1 hPa 0,0 l/m 0,0 km/h (0 Bft) N-NO 22 0 min 0,000 mm 0 W/m 5,1 C 6,5 C 6,4 km/h (2 Bft) 98 %
15.11.2014 00:10 6,4 C 6,4 C 6,5 C 91 % 1006,1 hPa 0,0 l/m 0,0 km/h (0 Bft) N-NO 22 0 min 0,000 mm 0 W/m 5,0 C 6,4 C 6,4 km/h (2 Bft) 96 %
15.11.2014 00:20 6,4 C 6,4 C 6,4 C 91 % 1005,9 hPa 0,0 l/m 0,0 km/h (0 Bft) N-NO 22 0 min 0,000 mm 0 W/m 5,0 C 6,4 C 4,8 km/h (1 Bft) 97 %
15.11.2014 00:30 6,4 C 6,4 C 6,4 C 91 % 1005,7 hPa 0,0 l/m 0,0 km/h (0 Bft) NO 45 0 min 0,000 mm 0 W/m 5,0 C 6,4 C 8,0 km/h (2 Bft) 97 %
15.11.2014 00:40 6,4 C 6,4 C 6,4 C 91 % 1006,1 hPa 0,0 l/m 0,0 km/h (0 Bft) S-SW 202 0 min 0,000 mm 0 W/m 5,0 C 6,4 C 4,8 km/h (1 Bft) 98 %
15.11.2014 00:50 6,5 C 6,4 C 6,5 C 91 % 1005,9 hPa 0,0 l/m 0,0 km/h (0 Bft) S-SW 202 0 min 0,000 mm 0 W/m 5,1 C 6,5 C 1,6 km/h (1 Bft) 98 %
15.11.2014 01:00 6,5 C 6,5 C 6,5 C 91 % 1005,7 hPa 0,0 l/m 0,0 km/h (0 Bft) S-SW 202 0 min 0,000 mm 0 W/m 5,1 C 6,5 C 4,8 km/h (1 Bft) 97 %
15.11.2014 01:10 6,6 C 6,5 C 6,6 C 91 % 1005,6 hPa 0,0 l/m 0,0 km/h (0 Bft) NO 45 0 min 0,000 mm 0 W/m 5,2 C 6,6 C 4,8 km/h (1 Bft) 98 %
15.11.2014 01:20 6,7 C 6,6 C 6,7 C 91 % 1005,5 hPa 0,0 l/m 0,0 km/h (0 Bft) N-NO 22 0 min 0,000 mm 0 W/m 5,3 C 6,7 C 6,4 km/h (2 Bft) 97 %
15.11.2014 01:30 6,7 C 6,6 C 6,7 C 91 % 1005,4 hPa 0,0 l/m 0,0 km/h (0 Bft) NO 45 0 min 0,000 mm 0 W/m 5,3 C 6,7 C 6,4 km/h (2 Bft) 98 %
15.11.2014 01:40 6,7 C 6,7 C 6,7 C 91 % 1005,1 hPa 0,0 l/m 0,0 km/h (0 Bft) N-NO 22 0 min 0,000 mm 0 W/m 5,3 C 6,7 C 4,8 km/h (1 Bft) 97 %
15.11.2014 01:50 6,8 C 6,7 C 6,8 C 91 % 1004,7 hPa 0,0 l/m 0,0 km/h (0 Bft) W-NW 292 0 min 0,000 mm 0 W/m 5,4 C 6,8 C 4,8 km/h (1 Bft) 98 %
15.11.2014 02:00 6,8 C 6,8 C 6,8 C 91 % 1004,8 hPa 0,0 l/m 1,6 km/h (1 Bft) SW 225 0 min 0,000 mm 0 W/m 5,4 C 6,8 C 6,4 km/h (2 Bft) 98 %
15.11.2014 02:10 6,8 C 6,8 C 6,8 C 91 % 1004,9 hPa 0,0 l/m 0,0 km/h (0 Bft) O-NO 67 0 min 0,000 mm 0 W/m 5,4 C 6,8 C 4,8 km/h (1 Bft) 97 %
15.11.2014 02:20 6,8 C 6,8 C 6,8 C 91 % 1004,6 hPa 0,0 l/m 0,0 km/h (0 Bft) NO 45 0 min 0,000 mm 0 W/m 5,4 C 6,8 C 8,0 km/h (2 Bft) 98 %
15.11.2014 02:30 6,8 C 6,8 C 6,8 C 91 % 1004,4 hPa 0,0 l/m 0,0 km/h (0 Bft) S 180 0 min 0,000 mm 0 W/m 5,4 C 6,8 C 3,2 km/h (1 Bft) 97 %
15.11.2014 02:40 6,8 C 6,8 C 6,8 C 91 % 1004,5 hPa 0,0 l/m 1,6 km/h (1 Bft) O-SO 112 0 min 0,000 mm 0 W/m 5,4 C 6,8 C 8,0 km/h (2 Bft) 97 %
15.11.2014 02:50 6,8 C 6,8 C 6,8 C 91 % 1004,4 hPa 0,0 l/m 0,0 km/h (0 Bft) O-NO 67 0 min 0,000 mm 0 W/m 5,4 C 6,8 C 6,4 km/h (2 Bft) 97 %
15.11.2014 03:00 6,9 C 6,8 C 6,9 C 91 % 1004,2 hPa 0,0 l/m 0,0 km/h (0 Bft) O-NO 67 0 min 0,000 mm 0 W/m 5,5 C 6,9 C 6,4 km/h (2 Bft) 98 %
15.11.2014 03:10 6,9 C 6,9 C 6,9 C 91 % 1004,1 hPa 0,0 l/m 0,0 km/h (0 Bft) NW 315 0 min 0,000 mm 0 W/m 5,5 C 6,9 C 6,4 km/h (2 Bft) 97 %
15.11.2014 03:20 6,9 C 6,9 C 6,9 C 91 % 1004,3 hPa 0,0 l/m 1,6 km/h (1 Bft) O-SO 112 0 min 0,000 mm 0 W/m 5,5 C 6,9 C 6,4 km/h (2 Bft) 97 %
15.11.2014 03:30 6,9 C 6,9 C 7,0 C 91 % 1004,3 hPa 0,0 l/m 0,0 km/h (0 Bft) N 360 0 min 0,000 mm 0 W/m 5,5 C 6,9 C 6,4 km/h (2 Bft) 97 %
15.11.2014 03:40 7,0 C 6,9 C 7,0 C 91 % 1003,7 hPa 0,0 l/m 0,0 km/h (0 Bft) O 90 0 min 0,000 mm 0 W/m 5,6 C 7,0 C 9,7 km/h (2 Bft) 98 %
15.11.2014 03:50 7,1 C 7,0 C 7,1 C 91 % 1003,4 hPa 0,0 l/m 0,0 km/h (0 Bft) NO 45 0 min 0,000 mm 0 W/m 5,7 C 7,1 C 11,3 km/h (2 Bft) 97 %
15.11.2014 04:00 7,1 C 7,0 C 7,1 C 91 % 1003,0 hPa 0,0 l/m 0,0 km/h (0 Bft) N-NW 337 0 min 0,000 mm 0 W/m 5,7 C 7,1 C 6,4 km/h (2 Bft) 98 %
15.11.2014 04:10 7,1 C 7,1 C 7,1 C 91 % 1002,7 hPa 0,0 l/m 1,6 km/h (1 Bft) N-NO 22 0 min 0,000 mm 0 W/m 5,7 C 7,1 C 14,5 km/h (3 Bft) 98 %
15.11.2014 04:20 7,1 C 7,1 C 7,1 C 91 % 1002,6 hPa 0,0 l/m 0,0 km/h (0 Bft) NO 45 0 min 0,000 mm 0 W/m 5,7 C 7,1 C 8,0 km/h (2 Bft) 98 %
15.11.2014 04:30 7,1 C 7,1 C 7,1 C 91 % 1002,1 hPa 0,0 l/m 1,6 km/h (1 Bft) NO 45 0 min 0,000 mm 0 W/m 5,7 C 7,1 C 11,3 km/h (2 Bft) 97 %
15.11.2014 04:40 7,1 C 7,1 C 7,1 C 92 % 1002,5 hPa 0,0 l/m 1,6 km/h (1 Bft) SW 225 0 min 0,000 mm 0 W/m 5,9 C 7,1 C 8,0 km/h (2 Bft) 97 %
15.11.2014 04:50 7,2 C 7,1 C 7,2 C 92 % 1002,8 hPa 0,0 l/m 1,6 km/h (1 Bft) W-SW 247 0 min 0,000 mm 0 W/m 6,0 C 7,2 C 6,4 km/h (2 Bft) 98 %
15.11.2014 05:00 7,3 C 7,2 C 7,3 C 92 % 1002,4 hPa 0,0 l/m 1,6 km/h (1 Bft) O-SO 112 0 min 0,000 mm 0 W/m 6,1 C 7,3 C 6,4 km/h (2 Bft) 98 %
15.11.2014 05:10 7,3 C 7,2 C 7,3 C 92 % 1002,0 hPa 0,0 l/m 1,6 km/h (1 Bft) O-SO 112 0 min 0,000 mm 0 W/m 6,1 C 7,3 C 9,7 km/h (2 Bft) 89 %
15.11.2014 05:20 7,3 C 7,3 C 7,3 C 92 % 1002,6 hPa 0,0 l/m 3,2 km/h (1 Bft) SW 225 0 min 0,000 mm 0 W/m 6,1 C 7,3 C 9,7 km/h (2 Bft) 98 %
15.11.2014 05:30 7,4 C 7,3 C 7,4 C 91 % 1002,3 hPa 0,0 l/m 1,6 km/h (1 Bft) SW 225 0 min 0,000 mm 0 W/m 6,0 C 7,4 C 8,0 km/h (2 Bft) 98 %
15.11.2014 05:40 7,4 C 7,3 C 7,4 C 91 % 1002,7 hPa 0,0 l/m 0,0 km/h (0 Bft) SO 135 0 min 0,000 mm 0 W/m 6,0 C 7,4 C 9,7 km/h (2 Bft) 97 %
15.11.2014 05:50 7,6 C 7,4 C 7,6 C 92 % 1002,8 hPa 0,0 l/m 1,6 km/h (1 Bft) O-SO 112 0 min 0,000 mm 0 W/m 6,4 C 7,6 C 8,0 km/h (2 Bft) 98 %
15.11.2014 06:00 7,6 C 7,5 C 7,6 C 92 % 1002,9 hPa 0,0 l/m 1,6 km/h (1 Bft) O-SO 112 0 min 0,000 mm 0 W/m 6,4 C 7,6 C 8,0 km/h (2 Bft) 98 %
15.11.2014 06:10 7,7 C 7,6 C 7,7 C 92 % 1003,0 hPa 0,0 l/m 0,0 km/h (0 Bft) SO 135 0 min 0,000 mm 0 W/m 6,5 C 7,7 C 6,4 km/h (2 Bft) 98 %
15.11.2014 06:20 7,7 C 7,7 C 7,7 C 92 % 1002,7 hPa 0,0 l/m 0,0 km/h (0 Bft) N 360 0 min 0,000 mm 0 W/m 6,5 C 7,7 C 4,8 km/h (1 Bft) 97 %
15.11.2014 06:30 7,7 C 7,7 C 7,7 C 92 % 1002,7 hPa 0,0 l/m 0,0 km/h (0 Bft) N 360 0 min 0,000 mm 0 W/m 6,5 C 7,7 C 3,2 km/h (1 Bft) 98 %
15.11.2014 06:40 7,7 C 7,7 C 7,7 C 92 % 1002,8 hPa 0,0 l/m 0,0 km/h (0 Bft) O 90 0 min 0,000 mm 0 W/m 6,5 C 7,7 C 3,2 km/h (1 Bft) 98 %
15.11.2014 06:50 7,7 C 7,7 C 7,7 C 92 % 1002,9 hPa 0,0 l/m 0,0 km/h (0 Bft) SO 135 0 min 0,000 mm 0 W/m 6,5 C 7,7 C 1,6 km/h (1 Bft) 97 %
15.11.2014 07:00 7,7 C 7,7 C 7,8 C 92 % 1003,0 hPa 0,0 l/m 0,0 km/h (0 Bft) S-SO 157 0 min 0,000 mm 0 W/m 6,5 C 7,7 C 1,6 km/h (1 Bft) 98 %
15.11.2014 07:10 7,8 C 7,7 C 7,8 C 92 % 1003,0 hPa 0,0 l/m 0,0 km/h (0 Bft) S-SO 157 0 min 0,000 mm 0 W/m 6,6 C 7,8 C 1,6 km/h (1 Bft) 98 %
15.11.2014 07:20 7,8 C 7,8 C 7,8 C 92 % 1003,2 hPa 0,0 l/m 0,0 km/h (0 Bft) S-SO 157 0 min 0,000 mm 0 W/m 6,6 C 7,8 C 3,2 km/h (1 Bft) 98 %
15.11.2014 07:30 7,8 C 7,8 C 7,8 C 92 % 1003,3 hPa 0,0 l/m 0,0 km/h (0 Bft) N 0 0 min 0,000 mm 0 W/m 6,6 C 7,8 C 0,0 km/h (0 Bft) 97 %
15.11.2014 07:40 7,8 C 7,8 C 7,8 C 92 % 1003,6 hPa 0,0 l/m 0,0 km/h (0 Bft) S-SO 157 0 min 0,000 mm 0 W/m 6,6 C 7,8 C 4,8 km/h (1 Bft) 93 %
15.11.2014 07:50 7,9 C 7,8 C 7,9 C 92 % 1003,7 hPa 0,0 l/m 1,6 km/h (1 Bft) S-SO 157 0 min 0,000 mm 7 W/m 6,7 C 7,9 C 4,8 km/h (1 Bft) 92 %
15.11.2014 08:00 7,9 C 7,8 C 7,9 C 92 % 1003,8 hPa 0,0 l/m 1,6 km/h (1 Bft) S 180 0 min 0,000 mm 9 W/m 6,7 C 7,9 C 8,0 km/h (2 Bft) 98 %
15.11.2014 08:10 7,8 C 7,8 C 7,9 C 92 % 1003,8 hPa 0,0 l/m 3,2 km/h (1 Bft) S 180 0 min 0,000 mm 25 W/m 6,6 C 7,8 C 8,0 km/h (2 Bft) 98 %
15.11.2014 08:20 7,8 C 7,8 C 7,8 C 92 % 1003,8 hPa 0,0 l/m 1,6 km/h (1 Bft) SO 135 0 min 0,000 mm 42 W/m 6,6 C 7,8 C 4,8 km/h (1 Bft) 98 %
15.11.2014 08:30 7,8 C 7,8 C 7,8 C 92 % 1003,8 hPa 0,0 l/m 0,0 km/h (0 Bft) SO 135 0 min 0,000 mm 67 W/m 6,6 C 7,8 C 4,8 km/h (1 Bft) 97 %
15.11.2014 08:40 7,8 C 7,8 C 7,9 C 92 % 1003,9 hPa 0,0 l/m 1,6 km/h (1 Bft) SO 135 0 min 0,000 mm 67 W/m 6,6 C 7,8 C 4,8 km/h (1 Bft) 97 %
15.11.2014 08:50 7,9 C 7,8 C 7,9 C 92 % 1004,3 hPa 0,0 l/m 1,6 km/h (1 Bft) S-SW 202 0 min 0,000 mm 69 W/m 6,7 C 7,9 C 6,4 km/h (2 Bft) 97 %
15.11.2014 09:00 7,8 C 7,8 C 7,9 C 92 % 1004,6 hPa 0,0 l/m 1,6 km/h (1 Bft) SW 225 0 min 0,025 mm 86 W/m 6,6 C 7,8 C 4,8 km/h (1 Bft) 98 %
15.11.2014 09:10 7,8 C 7,8 C 7,8 C 92 % 1004,6 hPa 0,0 l/m 1,6 km/h (1 Bft) S-SW 202 0 min 0,000 mm 114 W/m 6,6 C 7,8 C 9,7 km/h (2 Bft) 97 %
15.11.2014 09:20 7,8 C 7,8 C 7,9 C 92 % 1004,5 hPa 0,0 l/m 3,2 km/h (1 Bft) S 180 0 min 0,000 mm 86 W/m 6,6 C 7,8 C 11,3 km/h (2 Bft) 97 %
15.11.2014 09:30 7,9 C 7,8 C 7,9 C 92 % 1004,5 hPa 0,0 l/m 1,6 km/h (1 Bft) S-SO 157 10 min 0,000 mm 162 W/m 6,7 C 7,9 C 6,4 km/h (2 Bft) 98 %
15.11.2014 09:40 8,2 C 7,9 C 8,2 C 92 % 1004,5 hPa 0,0 l/m 4,8 km/h (1 Bft) S 180 10 min 0,000 mm 209 W/m 7,0 C 8,2 C 14,5 km/h (3 Bft) 98 %
15.11.2014 09:50 8,1 C 8,1 C 8,2 C 91 % 1004,5 hPa 0,0 l/m 4,8 km/h (1 Bft) S-SW 202 0 min 0,000 mm 111 W/m 6,7 C 8,1 C 9,7 km/h (2 Bft) 97 %
15.11.2014 10:00 8,0 C 8,0 C 8,1 C 91 % 1004,4 hPa 0,0 l/m 3,2 km/h (1 Bft) S-SW 202 0 min 0,051 mm 97 W/m 6,6 C 8,0 C 8,0 km/h (2 Bft) 98 %
15.11.2014 10:10 8,0 C 8,0 C 8,1 C 91 % 1004,5 hPa 0,0 l/m 4,8 km/h (1 Bft) S-SW 202 0 min 0,000 mm 93 W/m 6,6 C 8,0 C 11,3 km/h (2 Bft) 97 %
15.11.2014 10:20 8,1 C 8,0 C 8,1 C 92 % 1004,5 hPa 0,0 l/m 4,8 km/h (1 Bft) S-SW 202 0 min 0,000 mm 95 W/m 6,9 C 8,1 C 9,7 km/h (2 Bft) 98 %
15.11.2014 10:30 8,2 C 8,1 C 8,2 C 92 % 1005,0 hPa 0,0 l/m 6,4 km/h (2 Bft) S-SW 202 0 min 0,000 mm 70 W/m 7,0 C 8,2 C 11,3 km/h (2 Bft) 97 %
15.11.2014 10:40 8,2 C 8,1 C 8,2 C 92 % 1005,0 hPa 0,0 l/m 4,8 km/h (1 Bft) S-SW 202 0 min 0,000 mm 97 W/m 7,0 C 8,2 C 16,1 km/h (3 Bft) 97 %
15.11.2014 10:50 8,2 C 8,2 C 8,2 C 92 % 1004,7 hPa 0,0 l/m 3,2 km/h (1 Bft) S-SW 202 0 min 0,000 mm 76 W/m 7,0 C 8,2 C 14,5 km/h (3 Bft) 98 %
15.11.2014 11:00 8,2 C 8,2 C 8,2 C 92 % 1004,5 hPa 0,0 l/m 0,0 km/h (0 Bft) S-SW 202 0 min 0,025 mm 60 W/m 7,0 C 8,2 C 3,2 km/h (1 Bft) 98 %
15.11.2014 11:10 8,2 C 8,1 C 8,2 C 92 % 1004,4 hPa 0,0 l/m 0,0 km/h (0 Bft) S-SW 202 0 min 0,000 mm 146 W/m 7,0 C 8,2 C 1,6 km/h (1 Bft) 99 %
15.11.2014 11:20 8,3 C 8,2 C 8,3 C 92 % 1004,2 hPa 0,0 l/m 0,0 km/h (0 Bft) S-SW 202 10 min 0,000 mm 169 W/m 7,1 C 8,3 C 3,2 km/h (1 Bft) 99 %
15.11.2014 11:30 8,3 C 8,3 C 8,3 C 92 % 1004,1 hPa 0,0 l/m 0,0 km/h (0 Bft) S-SW 202 0 min 0,000 mm 98 W/m 7,1 C 8,3 C 3,2 km/h (1 Bft) 100 %
15.11.2014 11:40 8,6 C 8,3 C 8,6 C 92 % 1004,3 hPa 0,0 l/m 0,0 km/h (0 Bft) S-SW 202 10 min 0,000 mm 250 W/m 7,4 C 8,6 C 3,2 km/h (1 Bft) 100 %
15.11.2014 11:50 8,6 C 8,6 C 8,7 C 92 % 1004,4 hPa 0,0 l/m 0,0 km/h (0 Bft) S-SW 202 10 min 0,000 mm 156 W/m 7,4 C 8,6 C 4,8 km/h (1 Bft) 100 %
15.11.2014 12:00 8,6 C 8,6 C 8,7 C 92 % 1004,9 hPa 0,0 l/m 4,8 km/h (1 Bft) S-SW 202 0 min 0,051 mm 46 W/m 7,4 C 8,6 C 9,7 km/h (2 Bft) 100 %
15.11.2014 12:10 8,6 C 8,6 C 8,6 C 92 % 1004,4 hPa 0,0 l/m 3,2 km/h (1 Bft) S 180 0 min 0,000 mm 104 W/m 7,4 C 8,6 C 9,7 km/h (2 Bft) 99 %
15.11.2014 12:20 8,7 C 8,6 C 8,7 C 92 % 1004,2 hPa 0,0 l/m 0,0 km/h (0 Bft) SO 135 10 min 0,000 mm 158 W/m 7,5 C 8,7 C 1,6 km/h (1 Bft) 100 %
15.11.2014 12:30 8,8 C 8,7 C 8,8 C 92 % 1004,3 hPa 0,0 l/m 1,6 km/h (1 Bft) SO 135 0 min 0,000 mm 142 W/m 7,6 C 8,8 C 6,4 km/h (2 Bft) 100 %
15.11.2014 12:40 8,9 C 8,8 C 8,9 C 91 % 1004,0 hPa 0,0 l/m 0,0 km/h (0 Bft) SO 135 10 min 0,000 mm 225 W/m 7,5 C 8,9 C 6,4 km/h (2 Bft) 100 %
15.11.2014 12:50 9,2 C 8,9 C 9,2 C 91 % 1003,9 hPa 0,0 l/m 0,0 km/h (0 Bft) SO 135 10 min 0,000 mm 197 W/m 7,8 C 9,2 C 1,6 km/h (1 Bft) 99 %
15.11.2014 13:00 9,3 C 9,1 C 9,3 C 91 % 1003,5 hPa 0,0 l/m 0,0 km/h (0 Bft) SO 135 0 min 0,051 mm 107 W/m 7,9 C 9,3 C 3,2 km/h (1 Bft) 99 %
15.11.2014 13:10 9,6 C 9,3 C 9,6 C 91 % 1003,3 hPa 0,0 l/m 0,0 km/h (0 Bft) W 270 0 min 0,000 mm 137 W/m 8,2 C 9,6 C 3,2 km/h (1 Bft) 100 %
15.11.2014 13:20 9,8 C 9,6 C 9,8 C 90 % 1003,4 hPa 0,0 l/m 0,0 km/h (0 Bft) N 0 0 min 0,000 mm 137 W/m 8,2 C 9,8 C 0,0 km/h (0 Bft) 99 %
15.11.2014 13:30 10,0 C 9,8 C 10,0 C 90 % 1003,5 hPa 0,0 l/m 0,0 km/h (0 Bft) W 270 10 min 0,000 mm 218 W/m 8,4 C 10,0 C 4,8 km/h (1 Bft) 99 %
15.11.2014 13:40 10,4 C 10,0 C 10,4 C 90 % 1003,1 hPa 0,0 l/m 0,0 km/h (0 Bft) W 270 10 min 0,000 mm 388 W/m 8,8 C 10,4 C 4,8 km/h (1 Bft) 99 %
15.11.2014 13:50 10,9 C 10,4 C 10,9 C 88 % 1003,0 hPa 0,0 l/m 1,6 km/h (1 Bft) W-SW 247 10 min 0,000 mm 318 W/m 9,0 C 10,9 C 6,4 km/h (2 Bft) 100 %
15.11.2014 14:00 11,1 C 10,9 C 11,1 C 87 % 1003,2 hPa 0,0 l/m 3,2 km/h (1 Bft) S-SW 202 10 min 0,102 mm 302 W/m 9,0 C 11,1 C 11,3 km/h (2 Bft) 100 %
15.11.2014 14:10 10,9 C 10,9 C 11,1 C 87 % 1002,9 hPa 0,0 l/m 3,2 km/h (1 Bft) S-SW 202 0 min 0,000 mm 146 W/m 8,8 C 10,9 C 14,5 km/h (3 Bft) 100 %
15.11.2014 14:20 10,6 C 10,6 C 10,9 C 88 % 1003,0 hPa 0,0 l/m 1,6 km/h (1 Bft) S 180 0 min 0,000 mm 111 W/m 8,7 C 10,6 C 8,0 km/h (2 Bft) 100 %
15.11.2014 14:30 10,6 C 10,6 C 10,6 C 89 % 1003,3 hPa 0,0 l/m 3,2 km/h (1 Bft) S 180 0 min 0,000 mm 95 W/m 8,9 C 10,6 C 6,4 km/h (2 Bft) 100 %
15.11.2014 14:40 10,5 C 10,4 C 10,6 C 89 % 1003,3 hPa 0,0 l/m 1,6 km/h (1 Bft) S-SW 202 0 min 0,000 mm 98 W/m 8,8 C 10,5 C 6,4 km/h (2 Bft) 100 %
15.11.2014 14:50 10,3 C 10,3 C 10,4 C 89 % 1003,1 hPa 0,0 l/m 0,0 km/h (0 Bft) S-SW 202 0 min 0,000 mm 83 W/m 8,6 C 10,3 C 4,8 km/h (1 Bft) 100 %
15.11.2014 15:00 10,1 C 10,1 C 10,3 C 89 % 1003,0 hPa 0,0 l/m 1,6 km/h (1 Bft) S-SO 157 0 min 0,051 mm 72 W/m 8,4 C 10,1 C 8,0 km/h (2 Bft) 100 %
15.11.2014 15:10 9,9 C 9,9 C 10,1 C 89 % 1002,9 hPa 0,0 l/m 0,0 km/h (0 Bft) S-SO 157 0 min 0,000 mm 62 W/m 8,2 C 9,9 C 1,6 km/h (1 Bft) 100 %
15.11.2014 15:20 9,9 C 9,9 C 10,0 C 89 % 1002,8 hPa 0,0 l/m 0,0 km/h (0 Bft) N 0 0 min 0,000 mm 62 W/m 8,2 C 9,9 C 0,0 km/h (0 Bft) 100 %
15.11.2014 15:30 9,9 C 9,9 C 9,9 C 89 % 1002,6 hPa 0,0 l/m 0,0 km/h (0 Bft) N 0 0 min 0,000 mm 58 W/m 8,2 C 9,9 C 0,0 km/h (0 Bft) 100 %
15.11.2014 15:40 9,8 C 9,8 C 9,9 C 90 % 1002,6 hPa 0,0 l/m 0,0 km/h (0 Bft) N 0 0 min 0,000 mm 49 W/m 8,2 C 9,8 C 0,0 km/h (0 Bft) 100 %
15.11.2014 15:50 9,8 C 9,8 C 9,9 C 90 % 1002,5 hPa 0,0 l/m 0,0 km/h (0 Bft) S-SO 168 0 min 0,000 mm 33 W/m 8,2 C 9,8 C 0,0 km/h (0 Bft) 98 %
15.11.2014 16:00 9,7 C 9,7 C 9,8 C 90 % 1002,5 hPa 0,0 l/m 0,0 km/h (0 Bft) S-SO 168 0 min 0,025 mm 26 W/m 8,1 C 9,7 C 0,0 km/h (0 Bft) 97 %
15.11.2014 16:10 9,6 C 9,6 C 9,7 C 90 % 1002,6 hPa 0,0 l/m 0,0 km/h (0 Bft) S-SO 168 0 min 0,000 mm 16 W/m 8,0 C 9,6 C 0,0 km/h (0 Bft) 98 %
15.11.2014 16:20 9,4 C 9,4 C 9,6 C 90 % 1002,6 hPa 0,0 l/m 0,0 km/h (0 Bft) S-SO 168 0 min 0,000 mm 9 W/m 7,8 C 9,4 C 0,0 km/h (0 Bft) 97 %
15.11.2014 16:30 9,3 C 9,3 C 9,4 C 90 % 1002,5 hPa 0,0 l/m 0,0 km/h (0 Bft) S-SO 168 0 min 0,000 mm 0 W/m 7,7 C 9,3 C 0,0 km/h (0 Bft) 97 %
15.11.2014 16:40 9,1 C 9,1 C 9,3 C 91 % 1002,5 hPa 0,0 l/m 0,0 km/h (0 Bft) S-SO 168 0 min 0,000 mm 0 W/m 7,7 C 9,1 C 0,0 km/h (0 Bft) 97 %
15.11.2014 16:50 9,0 C 9,0 C 9,1 C 91 % 1002,4 hPa 0,0 l/m 0,0 km/h (0 Bft) S-SO 168 0 min 0,000 mm 0 W/m 7,6 C 9,0 C 0,0 km/h (0 Bft) 97 %
15.11.2014 17:00 8,9 C 8,9 C 9,0 C 91 % 1002,4 hPa 0,0 l/m 0,8 km/h (0 Bft) S-SO 168 0 min 0,000 mm 0 W/m 7,5 C 8,9 C 3,2 km/h (1 Bft) 89 %
15.11.2014 17:10 8,8 C 8,8 C 8,9 C 91 % 1002,4 hPa 0,0 l/m 0,0 km/h (0 Bft) S-SO 168 0 min 0,000 mm 0 W/m 7,4 C 8,8 C 1,6 km/h (1 Bft) 97 %
15.11.2014 17:20 8,8 C 8,7 C 8,8 C 91 % 1002,3 hPa 0,0 l/m 0,0 km/h (0 Bft) S-SO 168 0 min 0,000 mm 0 W/m 7,4 C 8,8 C 1,6 km/h (1 Bft) 98 %
15.11.2014 17:30 8,7 C 8,7 C 8,8 C 92 % 1002,2 hPa 0,0 l/m 0,4 km/h (0 Bft) S-SO 168 0 min 0,000 mm 0 W/m 7,5 C 8,7 C 3,2 km/h (1 Bft) 97 %
15.11.2014 17:40 8,7 C 8,7 C 8,7 C 92 % 1002,2 hPa 0,0 l/m 0,0 km/h (0 Bft) S-SO 168 0 min 0,000 mm 0 W/m 7,5 C 8,7 C 0,0 km/h (0 Bft) 98 %
15.11.2014 17:50 8,7 C 8,7 C 8,7 C 92 % 1002,2 hPa 0,0 l/m 0,0 km/h (0 Bft) S-SO 168 0 min 0,000 mm 0 W/m 7,5 C 8,7 C 0,0 km/h (0 Bft) 97 %
15.11.2014 18:00 8,6 C 8,6 C 8,7 C 92 % 1002,2 hPa 0,0 l/m 0,0 km/h (0 Bft) S-SO 168 0 min 0,000 mm 0 W/m 7,4 C 8,6 C 0,0 km/h (0 Bft) 98 %
15.11.2014 18:10 8,6 C 8,6 C 8,6 C 91 % 1002,2 hPa 0,2 l/m 0,0 km/h (0 Bft) S-SO 168 0 min 0,000 mm 0 W/m 7,2 C 8,6 C 1,6 km/h (1 Bft) 97 %
15.11.2014 18:20 8,6 C 8,6 C 8,6 C 91 % 1002,3 hPa 0,0 l/m 0,0 km/h (0 Bft) S-SO 168 0 min 0,000 mm 0 W/m 7,2 C 8,6 C 1,6 km/h (1 Bft) 89 %
15.11.2014 18:30 8,6 C 8,6 C 8,6 C 91 % 1002,2 hPa 0,2 l/m 0,0 km/h (0 Bft) S-SO 168 0 min 0,000 mm 0 W/m 7,2 C 8,6 C 0,0 km/h (0 Bft) 97 %
15.11.2014 18:40 8,5 C 8,5 C 8,6 C 91 % 1002,0 hPa 0,2 l/m 1,0 km/h (0 Bft) S-SO 168 0 min 0,000 mm 0 W/m 7,1 C 8,5 C 3,2 km/h (1 Bft) 97 %
15.11.2014 18:50 8,4 C 8,4 C 8,5 C 91 % 1001,7 hPa 0,2 l/m 0,0 km/h (0 Bft) S-SO 168 0 min 0,000 mm 0 W/m 7,0 C 8,4 C 1,6 km/h (1 Bft) 98 %
15.11.2014 19:00 8,4 C 8,4 C 8,4 C 91 % 1001,4 hPa 0,4 l/m 0,0 km/h (0 Bft) S-SO 168 0 min 0,000 mm 0 W/m 7,0 C 8,4 C 0,0 km/h (0 Bft) 97 %
15.11.2014 19:10 8,3 C 8,3 C 8,4 C 91 % 1001,4 hPa 0,0 l/m 0,0 km/h (0 Bft) S-SO 168 0 min 0,000 mm 0 W/m 6,9 C 8,3 C 0,0 km/h (0 Bft) 97 %
15.11.2014 19:20 8,3 C 8,3 C 8,3 C 91 % 1001,8 hPa 0,2 l/m 0,1 km/h (0 Bft) S-SO 168 0 min 0,000 mm 0 W/m 6,9 C 8,3 C 3,2 km/h (1 Bft) 98 %
15.11.2014 19:30 8,3 C 8,3 C 8,3 C 91 % 1001,7 hPa 0,2 l/m 0,0 km/h (0 Bft) S-SO 168 0 min 0,000 mm 0 W/m 6,9 C 8,3 C 0,0 km/h (0 Bft) 97 %
15.11.2014 19:40 8,3 C 8,3 C 8,3 C 91 % 1001,7 hPa 0,0 l/m 0,0 km/h (0 Bft) S-SO 168 0 min 0,000 mm 0 W/m 6,9 C 8,3 C 0,0 km/h (0 Bft) 98 %
15.11.2014 19:50 8,3 C 8,3 C 8,3 C 91 % 1001,6 hPa 0,0 l/m 0,4 km/h (0 Bft) SO 136 0 min 0,000 mm 0 W/m 6,9 C 8,3 C 4,8 km/h (1 Bft) 97 %
15.11.2014 20:00 8,3 C 8,3 C 8,3 C 91 % 1001,4 hPa 0,2 l/m 0,5 km/h (0 Bft) W-SW 248 0 min 0,000 mm 0 W/m 6,9 C 8,3 C 3,2 km/h (1 Bft) 98 %
15.11.2014 20:10 8,3 C 8,3 C 8,3 C 91 % 1001,2 hPa 0,0 l/m 0,7 km/h (0 Bft) W-SW 248 0 min 0,000 mm 0 W/m 6,9 C 8,3 C 3,2 km/h (1 Bft) 97 %
15.11.2014 20:20 8,3 C 8,3 C 8,3 C 91 % 1001,1 hPa 0,2 l/m 0,1 km/h (0 Bft) W-NW 302 0 min 0,000 mm 0 W/m 6,9 C 8,3 C 3,2 km/h (1 Bft) 97 %
15.11.2014 20:30 8,2 C 8,2 C 8,3 C 91 % 1001,3 hPa 0,0 l/m 0,0 km/h (0 Bft) W-NW 302 0 min 0,000 mm 0 W/m 6,8 C 8,2 C 0,0 km/h (0 Bft) 98 %
15.11.2014 20:40 8,2 C 8,2 C 8,2 C 91 % 1000,9 hPa 0,0 l/m 0,0 km/h (0 Bft) W-NW 302 0 min 0,000 mm 0 W/m 6,8 C 8,2 C 0,0 km/h (0 Bft) 97 %
15.11.2014 20:50 8,2 C 8,2 C 8,2 C 91 % 1000,7 hPa 0,0 l/m 1,2 km/h (1 Bft) W-NW 302 0 min 0,000 mm 0 W/m 6,8 C 8,2 C 4,8 km/h (1 Bft) 90 %
15.11.2014 21:00 8,2 C 8,2 C 8,2 C 91 % 1000,6 hPa 0,0 l/m 0,9 km/h (0 Bft) NW 306 0 min 0,000 mm 0 W/m 6,8 C 8,2 C 4,8 km/h (1 Bft) 97 %
15.11.2014 21:10 8,2 C 8,2 C 8,2 C 91 % 1000,5 hPa 0,0 l/m 1,6 km/h (1 Bft) N-NW 337 0 min 0,000 mm 0 W/m 6,8 C 8,2 C 6,4 km/h (2 Bft) 100 %
15.11.2014 21:20 8,2 C 8,2 C 8,2 C 91 % 1000,9 hPa 0,0 l/m 0,0 km/h (0 Bft) N 0 0 min 0,000 mm 0 W/m 6,8 C 8,2 C 0,0 km/h (0 Bft) 100 %
15.11.2014 21:30 8,1 C 8,1 C 8,2 C 91 % 1000,8 hPa 0,0 l/m 0,0 km/h (0 Bft) N 0 0 min 0,000 mm 0 W/m 6,7 C 8,1 C 0,0 km/h (0 Bft) 100 %
15.11.2014 21:40 8,1 C 8,1 C 8,1 C 91 % 1000,9 hPa 0,0 l/m 0,0 km/h (0 Bft) N 360 0 min 0,000 mm 0 W/m 6,7 C 8,1 C 1,6 km/h (1 Bft) 100 %
15.11.2014 21:50 8,1 C 8,1 C 8,1 C 91 % 1001,1 hPa 0,2 l/m 0,0 km/h (0 Bft) N 360 0 min 0,000 mm 0 W/m 6,7 C 8,1 C 1,6 km/h (1 Bft) 100 %
15.11.2014 22:00 8,2 C 8,1 C 8,2 C 91 % 1000,9 hPa 0,2 l/m 0,0 km/h (0 Bft) N 360 0 min 0,000 mm 0 W/m 6,8 C 8,2 C 1,6 km/h (1 Bft) 99 %
15.11.2014 22:10 8,1 C 8,1 C 8,2 C 91 % 1000,8 hPa 0,2 l/m 0,0 km/h (0 Bft) N 360 0 min 0,000 mm 0 W/m 6,7 C 8,1 C 3,2 km/h (1 Bft) 100 %
15.11.2014 22:20 8,1 C 8,1 C 8,1 C 91 % 1000,6 hPa 0,4 l/m 0,0 km/h (0 Bft) N 360 0 min 0,000 mm 0 W/m 6,7 C 8,1 C 4,8 km/h (1 Bft) 100 %
15.11.2014 22:30 8,1 C 8,1 C 8,2 C 91 % 1000,4 hPa 0,2 l/m 0,0 km/h (0 Bft) N-NW 337 0 min 0,000 mm 0 W/m 6,7 C 8,1 C 6,4 km/h (2 Bft) 91 %
15.11.2014 22:40 8,2 C 8,1 C 8,2 C 91 % 1000,0 hPa 0,4 l/m 0,0 km/h (0 Bft) N-NW 337 0 min 0,000 mm 0 W/m 6,8 C 8,2 C 4,8 km/h (1 Bft) 99 %
15.11.2014 22:50 8,2 C 8,2 C 8,2 C 91 % 999,8 hPa 0,2 l/m 1,6 km/h (1 Bft) N-NW 337 0 min 0,000 mm 0 W/m 6,8 C 8,2 C 8,0 km/h (2 Bft) 100 %
15.11.2014 23:00 8,2 C 8,2 C 8,2 C 91 % 999,9 hPa 0,2 l/m 1,6 km/h (1 Bft) N-NW 337 0 min 0,000 mm 0 W/m 6,8 C 8,2 C 8,0 km/h (2 Bft) 100 %
15.11.2014 23:10 8,2 C 8,2 C 8,3 C 91 % 1000,0 hPa 0,0 l/m 0,0 km/h (0 Bft) N 360 0 min 0,000 mm 0 W/m 6,8 C 8,2 C 6,4 km/h (2 Bft) 100 %
15.11.2014 23:20 8,3 C 8,2 C 8,3 C 91 % 1000,2 hPa 0,2 l/m 0,0 km/h (0 Bft) N 0 0 min 0,000 mm 0 W/m 6,9 C 8,3 C 0,0 km/h (0 Bft) 100 %
15.11.2014 23:30 8,3 C 8,3 C 8,3 C 91 % 1000,0 hPa 0,2 l/m 0,0 km/h (0 Bft) N 360 0 min 0,000 mm 0 W/m 6,9 C 8,3 C 3,2 km/h (1 Bft) 100 %
15.11.2014 23:40 8,3 C 8,3 C 8,3 C 91 % 999,6 hPa 0,2 l/m 0,0 km/h (0 Bft) N 360 0 min 0,000 mm 0 W/m 6,9 C 8,3 C 3,2 km/h (1 Bft) 100 %
15.11.2014 23:50 8,3 C 8,3 C 8,3 C 91 % 999,5 hPa 0,2 l/m 0,0 km/h (0 Bft) N 360 0 min 0,000 mm 0 W/m 6,9 C 8,3 C 1,6 km/h (1 Bft) 100 %
_ Min-Zeit 00:10 00:10 00:20 14:00 23:50 - 00:00 - - - - - 00:10 00:10 07:30 05:10
Minimum _ 6,4 C 6,4 C 6,4 C 87 % 999,5 hPa - 0,0 km/h (0 Bft) - - - - - 5,0 C 6,4 C 0,0 km/h (0 Bft) 89 %
_ Max-Zeit 14:00 14:00 14:00 04:40 00:00 19:00 10:30 - - 09:30 14:00 13:40 14:00 14:00 10:40 11:40
Maximum _ 11,1 C 10,9 C 11,1 C 92 % 1006,1 hPa 0,4 l/m 6,4 km/h
S-SW (2 Bft)
- - 10 min 0,102 mm 388 W/m 9,0 C 11,1 C 16,1 km/h
S-SW (3 Bft)
100 %
Durchschnitt _ 8,2 C 8,1 C 8,2 C 91 % 1003,0 hPa #4,8 l/m 0,8 km/h (0 Bft) S-SW - #2:00 h #0,381 mm 113 W/m 6,8 C 8,2 C 4,9 km/h (1 Bft) 98 %
PRIVATE WETTERSTATION BILLIGHEIM-ALLFELD - www.neckar-odenwald-wetter.de - Holger Sonntag